STARLINK-32185, 60341

Orbit data source: Space-Track

STARLINK-32185, 60341 is a payload satellite owned by SpaceX/Seattle (US) in LEO that was launched on Fri, 02 Aug 2024 UTC via an FALCON 9 launch vehicle from the Air Force Eastern Test Range (AFETR). Payload-class satellites include a variety of spacecraft equipped with specific instruments for various scientific and technological missions. These include communications satellites like Starlink; space stations such as the ISS; scientific satellites like the Hubble; Earth observation satellites from companies like Planet Labs, Umbra, and HawkEye 360; GPS; miniature CubeSats for education and research; and military/defense satellites.

Loading next visibility...
Identifier
60341, 2024-136N
Orbit
LEO
Last TLE update
17 hours ago
Origin
Manufacturer
SpaceX/Seattle
Mission
Operational Commercial Communications
Bus & Motor
STARLINK V2M, Unknown motor
Mass
730 kg wet, ~700 kg dry
Launch date (UTC)
2024-08-02 (11 months ago)
Launch vehicle
FALCON 9
Launch site
Air Force Eastern Test Range (AFETR)
Object type
Payload
Rocket body
Debris
Shape & HBR
Box + 2 Pan, 29 m
Radar Cross Section
33.884 m², Large (>1 m²)

Expand to show TLE details & history

TLE from 17 hours ago
0 STARLINK-32185
1 60341U 24136N   25181.69155453 -.00000054  00000-0  10324-4 0  9999
2 60341  53.1602 166.0906 0001434  80.2051 279.9111 15.30193152 51083
Epoch: 2025-06-30T16:35Z
TLE epoch observation values (Epoch: 2025-06-30T16:35:50.311Z)
Latitude
-0.00007°
Longitude
-1.8668°
Altitude
475.966 km
Speed
7.629 km/s
True Right ascension
11h 04m 21s
True Declination
0° 00' 00"
Sunlit
Object was in daylight at epoch
Visualization orbit readout
Latitude
-52.65473°
Longitude
-107.59121°
Altitude
494.508 km
Speed
7.617 km/s
Apparent Right ascension
06h 46m 23s
Apparent Declination
-52° 54' 01"
Sunlit
Object is in daylight
Visualization observer readout
Local Sidereal Time
21:03:10
Azimuth
130.699° SE
Elevation
-63.437°
Doppler factor
1
Orbital elements
Apogee altitude
476.475 km
Perigee altitude
474.509 km
Semi-major axis
6,853.629 km
Eccentricity
0.00014
Inclination
53.1602°
RAAN
166.0906°
Arg. of periapsis
80.2051°
True anomaly
Unknown
Mean anomaly
279.9111°
Eccentric anomaly
Unknown
Mean motion
3.82527 °/min
Orbital period
94.11 mins
BSTAR
0.000010324
Loading maneuver chart data...
Loading SW <> Apogee altitude chart data...
Loading historical data...
Loading historical data...
Loading historical data...
Loading historical data...
Loading historical data...
Loading historical data...
Loading historical data...

STARLINK-32185 Visibility forecast

Observer location: undefined°, undefined°

Span
Click to sort rows by Start time (UTC) header in descending order
Start Az.
Max El. time (UTC)
Max El. Az.
Max El.
End time (UTC)
End Az.
6 mins2025-07-02 01:42:54.100Z240.698° WSW2025-07-02 01:44:54.100Z275.202° WNW41.174°2025-07-02 01:48:54.100Z45.858° ENE
4 mins2025-07-02 06:39:54.100Z341.641° N2025-07-02 06:41:54.100Z18.695° NNE18.021°2025-07-02 06:43:54.100Z58.888° ENE
6 mins2025-07-02 08:17:54.100Z307.989° NW2025-07-02 08:19:54.100Z297.312° NW42.13°2025-07-02 08:23:54.100Z133.596° SE
|